This is the latest recevied weather packets stored in our database for station/object W8CEN. If no packets are shown the sender has not sent any weather packets the latest 10 day(s).
| Time | Temp. | Humidity | Pressure | Rain* | Wind** | Luminosity | Snow |
|---|---|---|---|---|---|---|---|
| 1777651034 | 7.22° C | 85% | 991.8 hPa | 0 mm | - | 278 W/m² | - |
| 1777650731 | 7.22° C | 86% | 991.9 hPa | 0 mm | - | 198 W/m² | - |
| 1777650428 | 6.67° C | 87% | 991.8 hPa | 0 mm | - | 287 W/m² | - |
| 1777650125 | 6.67° C | 89% | 992.1 hPa | 0 mm | - | 251 W/m² | - |
| 1777649823 | 6.67° C | 89% | 991.9 hPa | 0 mm | - | 150 W/m² | - |
| 1777649520 | 6.67° C | 87% | 992 hPa | 0 mm | - | 89 W/m² | - |
| 1777649216 | 7.22° C | 86% | 991.8 hPa | 0 mm | - | 97 W/m² | - |
| 1777648913 | 7.22° C | 86% | 991.8 hPa | 0 mm | - | 185 W/m² | - |
| 1777648610 | 6.67° C | 89% | 991.6 hPa | 0 mm | - | 474 W/m² | - |
| 1777648307 | 6.67° C | 90% | 991.6 hPa | 0 mm | - | 391 W/m² | - |
| 1777648003 | 6.67° C | 90% | 991.6 hPa | 0 mm | - | 189 W/m² | - |
| 1777647699 | 6.67° C | 91% | 991.8 hPa | 1.27 mm | - | 201 W/m² | - |
| 1777647395 | 6.67° C | 92% | 991.4 hPa | 1.27 mm | - | 239 W/m² | - |
| 1777647094 | 6.67° C | 93% | 991.9 hPa | 0 mm | - | 195 W/m² | - |
| 1777646789 | 6.11° C | 93% | 991.7 hPa | 1.78 mm | - | 219 W/m² | - |
| 1777646484 | 6.11° C | 93% | 992.1 hPa | 3.05 mm | - | 165 W/m² | - |
| 1777646181 | 6.11° C | 93% | 992 hPa | 3.05 mm | - | 151 W/m² | - |
| 1777645878 | 6.11° C | 93% | 992 hPa | 3.05 mm | - | 138 W/m² | - |
| 1777645575 | 6.11° C | 93% | 992 hPa | 1.27 mm | - | 79 W/m² | - |
| 1777645271 | 6.11° C | 93% | 992.2 hPa | 1.27 mm | - | 65 W/m² | - |
| 1777644967 | 6.11° C | 93% | 992 hPa | 1.78 mm | - | 67 W/m² | - |
| 1777644665 | 5.56° C | 92% | 991.9 hPa | 1.78 mm | - | 68 W/m² | - |
| 1777644361 | 5.56° C | 92% | 991.8 hPa | 1.27 mm | - | 79 W/m² | - |
| 1777644057 | 5.56° C | 92% | 991.7 hPa | 0 mm | - | 84 W/m² | - |
| 1777643754 | 5.56° C | 92% | 991.9 hPa | 0 mm | - | 73 W/m² | - |
* Rain latest hour (hover to see other rain measurements)
** Current wind speed in m/s (hover to see current wind gust speed)